Location: Les Gen�tes
(46.3104°N, 1.5969°E)
Time: 11:57:58
(UTC+00:00)

NOSS 5 (C) - Pass Details

Date: 01 June 2020
Orbit: 376 x 1734 km, 63.3° (Epoch: 01 July)

Event Time Altitude Azimuth Distance (km) Brightness Sun altitude
Rises 23:20:21 0° 321° (NW) 2,299 9.0 -21.1°
Reaches altitude 10° 23:22:13 10° 322° (NW) 1,497 7.9 -21.1°
Maximum altitude 23:25:26 87° 48° (NE) 482 4.4 -21.2°
Enters shadow 23:25:28 86° 78° (ENE) 483 4.4 -21.2°
